Flag for U.S.A. Weather past 2 weeks in Daytona Beach, Florida, U.S.A.

Now
73 °F

Light rain. Mostly cloudy.


Feels Like: 71 °F
Forecast: 71 / 82 °F
Wind: 5 mph from North

Location: Daytona Beach Regional Airport

Current Time: Apr 27, 2015 at 6:42:00 PM

Latest Report: Apr 27, 2015 at 5:53 PM


Visibility: 8 mi

Pressure: 29.83 "Hg

Humidity: 88%

Dew point: 69 °F

Location of Daytona BeachLocation

Historic Weather in Daytona Beach — Graph

°F

Daytona Beach temperature yesterday

Maximum temperature yesterday: 88 °F (at 2:53 PM)
Minimum temperature yesterday: 75 °F (at 12:53 AM)
Average temperature yesterday: 80 °F

Past Weeks' High & Low Weather Summary

 TemperatureHumidityPressure
High90 °F (Apr 19, 2:53 PM)100% (Apr 12, 9:53 PM)30.19 "Hg (Apr 12, 9:53 PM)
Low65 °F (Apr 23, 5:53 AM)35% (Apr 23, 11:53 AM)29.70 "Hg (Apr 26, 4:53 PM)
Average75 °F82%29.98 "Hg
* Reported Apr 12 4:53 PM — Apr 27 4:53 PM, Daytona Beach, Weather by CustomWeather, © 2015

Note: Actual official high and low records may vary slightly from our data, if they occured in-between our weather recording intervals... More about our weather records

Advertising

Daytona Beach weather history for previous 24 hours

 ConditionsComfort  
Time TempWeatherWind HumidityBarometerVisibility
4:53 PM
Mon, Apr 27
73 °FLight rain. Fog.8 mph90%29.83 "Hg6 mi
3:53 PM75 °FLight rain. More clouds than sun.6 mph85%29.83 "Hg8 mi
2:53 PM76 °FMostly cloudy.7 mph80%29.81 "Hg8 mi
1:53 PM78 °FMostly cloudy.14 mph76%29.80 "Hg9 mi
12:53 PM82 °FCloudy.8 mph72%29.80 "Hg9 mi
11:53 AM82 °FCloudy.12 mph72%29.80 "Hg9 mi
10:53 AM79 °FBroken clouds.8 mph79%29.79 "Hg8 mi
9:53 AM77 °FBroken clouds.9 mph82%29.80 "Hg8 mi
8:53 AM74 °FCloudy.12 mph88%29.80 "Hg8 mi
7:53 AM77 °FFog.7 mph90%29.76 "Hg5 mi
6:53 AM76 °FFog.10 mph97%29.75 "Hg6 mi
5:53 AM77 °FFog.10 mph94%29.73 "Hg6 mi
4:53 AM76 °FFog.8 mph97%29.72 "Hg6 mi
3:53 AM77 °FLight rain. Overcast.9 mph90%29.72 "Hg7 mi
2:53 AM77 °FOvercast.9 mph90%29.71 "Hg7 mi
1:53 AM77 °FOvercast.7 mph90%29.70 "Hg7 mi
12:53 AM78 °FOvercast.8 mph87%29.73 "Hg8 mi
11:53 PM
Sun, Apr 26
78 °FOvercast.10 mph84%29.74 "Hg8 mi
10:53 PM78 °FPassing clouds.8 mph84%29.74 "Hg9 mi
9:53 PM78 °FPassing clouds.6 mph84%29.72 "Hg9 mi
8:53 PM80 °FPartly sunny.9 mph76%29.72 "Hg9 mi
7:53 PM80 °FLight rain. Cloudy.9 mph79%29.72 "Hg7 mi
6:53 PM83 °FBroken clouds.10 mph72%29.70 "Hg8 mi
Weather by CustomWeather, © 2015

See weather overviewHow to use our weather pages